SCP
0 0 0 0 0 0 0 0 0 0 0 0 0 0 0 0 0 0 0 0 0 0 0 0 0 0 0 0 0 0 0 0 0 0 0 0 0 0 0 0 0 0 0 0 0
0 0 0 0 0 0 0 0 0 0 0 0 0 0 0 0 0 0 0 0 0 0 0 0 0 0 0 0 0 0 0 0 0 0 0 0 0 0 0 0 0 0 0 0 0
0 0 0 0 0 0 0 0 0 0 0 0 0 0 0 0 0 0 0 0 0 0 0 0 0 0 0 0 0 0 0 0 0 0 0 0 0 0 0 0 0 0 0 0 0
0 0 0 0 0 0 0 0 0 0 0 0 0 0 0 0 0 0 0 0 0 0 0 0 0 0 0 0 0 0 0 0 0 0 0 0 0 0 0 0 0 0 0 0 0
0 0 0 0 0 0 0 0 0 0 0 0 0 0 0 0 0 0 0 0 0 0 0 0 0 0 0 0 0 0 0 0 0 0 0 0 0 0 0 0 0 0 0 0 0
0 0 0 0 0 0 0 0 0 0 0 0 0 0 0 0 0 0 0 0 0 0 0 0 0 0 0 0 0 0 0 0 0 0 0 0 0 0 0 0 0 0 0 0 0
0 0 0 0 0 0 0 0 0 0 0 0 0 0 0 0 0 0 0 0 0 0 0 0 0 0 0 0 0 0 0 0 0 0 0 0 0 0 0 0 0 0 0 0 0
0 0 0 0 0 0 0 0 0 0 0 0 0 0 0 0 0 0 0 0 0 0 0 0 0 0 0 0 0 0 0 0 0 0 0 0 0 0 0 0 0 0 0 0 0
0 0 0 0 0 0 0 0 0 0 0 0 0 0 0 0 0 0 0 0 0 0 0 0 0 0 0 0 0 0 0 0 0 0 0 0 0 0 0 0 0 0 0 0 0
0 0 0 0 0 0 0 0 0 0 0 0 0 0 0 0 0 0 0 0 0 0 0 0 0 0 0 0 0 0 0 0 0 0 0 0 0 0 0 0 0 0 0 0 0
0 0 0 0 0 0 0 0 0 0 0 0 0 0 0 0 0 0 0 0 0 0 0 0 0 0 0 0 0 0 0 0 0 0 0 0 0 0 0 0 0 0 0 0 0
0 0 0 0 0 0 0 0 0 0 0 0 0 0 0 0 0 0 0 0 0 0 0 0 0 0 0 0 0 0 0 0 0 0 0 0 0 0 0 0 0 0 0 0 0
0 0 0 0 0 0 0 0 0 0 0 0 0 0 0 0 0 0 0 0 0 0 0 0 0 0 0 0 0 0 0 0 0 0 0 0 0 0 0 0 0 0 0 0 0
0 0 0 0 0 0 0 0 0 0 0 0 0 0 0 0 0 0 0 0 0 0 0 0 0 0 0 0 0 0 0 0 0 0 0 0 0 0 0 0 0 0 0 0 0
0 0 0 0 0 0 0 0 0 0 0 0 0 0 0 0 0 0 0 0 0 0 0 0 0 0 0 0 0 0 0 0 0 0 0 0 0 -0 0 0 0 0 0 0 0
0 0 0 0 0 0 0 0 0 0 0 0 0 0 0 0 0 0 0 0 0 0 0 0 0 0 0 0 0 0 0 0 0 0 0 0 0 0 0 0 0 0 0 0 0
0 0 0 0 0 0 0 0 0 0 0 0 0 0 0 0 0 0 0 0 0 0 0 0 0 0 0 0 0 0 0 0 0 0 0 0 0 0 0 0 0 0 0 0 0
0 0 0 0 0 0 0 -0 0 0 0 0 0 0 0 0 0 0 0 0 0 0 0 0 0 0 0 0 0 0 0 0 0 0 0 0 0 0 0 0 0 0 0 0 0
0 0 0 0 0 0 0 0 0 0 0 0 0 0 0 0 0 0 0 0 0 0 0 0 0 0 0 0 0 0 0 0 0 0 0 0 0 0 0 0 0 0 0 0 0
0 0 0 0 0 0 0 0 0 0 -0 0 0 0 0 0 0 0 0 0 0 0 0 0 0 0 0 0 0 0 0 0 0 0 0 0 0 0 0 0 0 0 0 0 0
0 0 0 0 0 0 0 0 0 0 0 0 0 0 0 0 0 0 0 0 0 0 0 0 0 0 0 0 0 0 0 0 0 0 0 0 0 0 0 0 0 0 0 0 0
0 0 0 0 0 0 0 0 0 0 0 0 0 0 0 0 0 0 0 0 0 0 0 0 0 0 0 0 0 0 0 0 0 0 0 0 0 0 0 0 0 0 0 0 0
0 0 0 0 0 0 0 0 0 0 0 0 0 -0 0 0 0 0 0 0 0 0 0 0 0 0 0 0 0 0 0 0 0 0 0 0 0 0 0 0 0 0 0 0 0
0 0 0 0 0 0 0 0 0 0 0 0 0 0 0 0 0 0 0 0 0 0 0 0 0 0 0 0 0 0 0 0 0 0 0 0 0 0 0 0 0 0 0 0 0
0 0 0 0 0 0 0 0 0 0 0 -0 0 -0 0 0 0 0 0 0 0 0 0 0 0 0 0 0 0 0 0 0 0 0 0 0 0 0 0 0 0 0 0 0 0
0 0 0 0 0 0 0 0 0 0 0 0 0 0 0 0 0 0 0 0 0 0 0 0 0 0 0 0 0 0 0 0 0 0 0 0 0 0 0 0 0 0 0 0 0
0 0 0 0 0 0 0 0 0 0 0 0 -0 0 0 0 0 0 0 0 0 0 0 0 0 0 0 0 0 0 0 0 0 0 0 0 0 0 0 0 0 0 0 0 0
Wind_Speed_500mb
36 32 27 27 29 28 22 21 20 29 30 32 34 36 38 35 39 37 40 24 18 15 15 16 20 22 25 20 18 14 13 24 27 23 11 12 14 12 10 10 11 16 9 10 13
36 38 36 29 33 29 31 22 24 24 22 26 27 31 35 38 38 45 45 35 30 26 21 17 18 24 17 18 14 20 18 27 11 19 9 9 13 8 9 16 14 14 20 14 14
47 43 41 40 35 36 18 31 31 31 30 23 21 20 23 26 26 16 27 36 46 42 30 26 21 21 20 17 22 16 21 22 8 15 10 8 10 6 10 14 18 21 22 22 20
45 49 52 50 45 40 37 25 34 34 32 24 23 22 20 18 11 9 12 17 27 46 41 30 24 21 20 20 23 12 28 14 4 8 7 8 7 9 15 8 7 12 13 20 23
52 52 51 49 52 49 47 39 31 29 33 34 29 23 23 16 29 14 9 6 10 30 48 35 34 27 22 19 16 24 17 16 24 9 9 9 13 10 22 22 11 11 8 7 15
65 62 64 56 53 52 49 49 41 30 27 23 37 28 32 29 26 25 19 11 11 25 36 38 23 26 19 11 30 10 34 28 12 20 20 10 16 3 23 25 29 27 24 22 20
71 69 65 65 59 57 55 50 50 40 34 23 31 33 41 45 21 16 30 26 21 24 26 41 24 26 17 9 20 6 11 13 23 26 12 13 30 35 58 27 17 19 23 20 27
71 56 57 60 59 54 52 53 50 46 40 26 31 35 35 26 52 53 26 29 28 24 20 31 39 19 12 11 8 14 14 24 14 26 18 29 40 21 38 44 56 54 47 47 46
60 59 58 57 63 54 52 52 49 51 44 37 36 33 29 24 54 40 31 33 32 28 21 16 29 24 17 19 13 18 26 29 20 25 10 34 23 17 12 28 40 38 33 39 58
56 65 61 58 52 51 47 46 48 49 49 44 42 20 36 27 25 43 49 43 26 31 23 19 19 21 25 29 32 26 23 25 26 12 18 28 31 17 11 5 15 19 25 31 39
60 58 57 59 54 52 49 38 33 32 75 35 28 26 0 38 20 36 36 33 29 38 33 22 23 42 47 45 33 16 33 22 12 4 8 29 34 31 44 41 39 41 42 38 41
63 60 54 54 56 52 53 55 50 16 20 75 40 70 24 39 23 26 33 34 41 40 46 20 46 38 17 29 34 24 21 26 6 2 6 15 30 27 33 43 44 44 44 42 45
64 59 54 55 50 57 61 62 54 43 11 40 62 54 50 47 28 49 49 31 42 40 48 46 5 40 30 29 38 40 37 24 15 1 5 19 40 37 27 45 45 48 51 51 51
64 59 54 50 45 52 59 56 52 48 16 20 38 36 62 28 16 39 57 39 18 45 37 36 32 23 35 43 33 38 32 26 19 10 16 2 17 15 7 13 14 25 25 32 36
56 58 59 53 39 34 48 51 54 34 19 27 24 25 51 59 28 36 57 29 31 29 30 27 29 29 39 44 37 21 22 28 27 24 18 30 14 13 3 16 29 29 23 15 15
58 51 52 54 54 55 32 38 48 14 18 21 19 31 32 62 31 32 48 27 26 25 33 30 2 33 39 16 37 29 21 16 12 13 16 34 28 22 20 19 16 10 19 21 14
46 48 56 56 62 57 57 35 17 22 20 16 18 25 52 32 44 30 43 35 30 23 31 37 24 7 19 28 28 36 38 11 10 13 22 10 24 39 12 13 13 12 23 11 14
50 50 54 64 58 50 48 13 25 35 18 5 20 33 35 33 39 36 45 38 48 40 27 30 21 35 28 37 21 44 43 15 19 17 15 20 23 13 11 38 25 12 9 16 19
43 50 58 61 60 55 36 25 5 7 27 24 27 38 20 21 20 27 43 51 52 50 25 35 30 33 40 17 28 36 34 16 3 3 5 15 17 19 22 12 25 17 22 22 17
40 45 57 61 62 63 20 41 9 10 8 35 30 29 29 37 25 40 44 45 44 48 27 16 17 21 18 15 23 33 30 16 14 14 16 18 18 16 13 24 17 22 23 12 15
36 15 28 58 49 37 21 21 18 13 4 15 32 21 34 37 37 47 50 23 53 54 36 25 9 9 27 31 38 16 30 19 16 16 15 14 13 8 14 18 23 17 10 16 25
34 9 20 42 17 12 19 18 13 26 10 12 6 12 36 46 36 40 39 32 72 50 48 31 9 15 37 8 11 38 41 44 19 19 17 14 15 8 12 18 15 9 13 20 23
29 31 25 54 17 18 7 14 20 14 14 7 5 8 3 38 24 33 41 40 49 47 46 29 15 14 11 6 5 19 25 39 31 7 27 17 19 17 17 8 3 8 12 15 18
24 15 17 39 34 26 14 15 17 18 16 12 11 16 13 19 6 26 32 20 45 46 42 45 7 27 29 16 23 22 31 34 31 19 31 32 43 34 25 23 24 16 11 16 19
36 9 24 16 19 28 27 27 34 16 15 28 13 17 23 6 19 14 16 12 25 48 30 25 20 9 3 6 20 25 26 37 39 42 28 38 40 36 34 26 15 7 14 22 20
21 13 12 6 38 35 34 22 34 35 17 19 24 23 17 29 12 21 24 23 20 29 31 19 10 7 4 6 8 10 28 38 36 34 31 31 35 40 14 2 2 5 10 15 22
32 25 36 22 18 24 22 29 42 38 24 32 35 26 16 31 38 19 23 33 28 41 33 23 14 17 16 1 9 9 29 33 29 29 32 29 36 15 7 6 4 5 9 12 16
Wind_Direction_500mb
277 276 278 278 233 247 263 244 243 256 245 252 265 263 282 281 268 266 267 251 239 236 225 209 203 196 185 188 188 174 222 231 226 204 218 179 204 187 208 221 198 203 212 186 189
266 273 278 272 271 259 250 253 232 252 256 264 274 281 288 293 287 271 261 245 228 224 221 202 198 186 182 183 188 202 221 228 233 214 241 200 220 191 208 201 212 206 215 205 193
260 260 260 268 268 269 282 250 242 249 245 243 261 287 293 292 300 266 243 238 229 221 212 203 196 188 208 183 188 197 227 226 222 224 243 240 229 213 231 222 223 217 207 214 215
263 254 257 254 253 262 270 277 238 247 250 239 248 259 276 286 253 208 226 240 233 214 205 194 181 188 208 209 204 210 228 219 225 217 224 233 291 235 224 240 225 201 199 217 221
253 253 253 253 254 251 256 255 263 255 260 252 233 246 243 244 248 233 219 229 210 204 201 192 184 192 205 212 192 229 226 215 230 212 234 269 244 275 257 230 207 188 189 211 227
260 255 257 253 252 250 250 249 242 256 267 299 221 241 229 238 259 228 202 204 200 189 200 196 203 200 210 216 213 229 227 236 230 230 231 236 250 211 255 246 240 243 249 252 252
257 258 256 250 253 247 247 249 245 236 241 272 210 233 240 234 252 232 215 211 206 197 209 208 203 191 190 189 218 201 238 220 222 226 229 187 244 233 246 253 250 242 248 257 255
255 253 252 252 251 246 244 243 240 237 233 224 223 236 246 239 243 240 228 210 206 200 198 210 212 211 198 144 123 219 239 240 172 191 210 201 253 213 251 235 248 255 257 260 257
258 254 252 253 253 249 244 243 238 234 233 223 218 222 242 230 228 228 218 225 207 201 190 187 189 212 180 193 205 203 239 230 240 194 184 204 254 241 267 234 246 250 255 257 259
257 257 252 250 246 245 245 242 235 234 218 211 215 202 230 219 209 216 228 222 203 195 190 179 186 208 211 200 219 211 216 219 218 186 222 226 241 263 234 251 253 253 252 255 256
254 253 255 252 250 251 242 235 223 219 207 189 193 193 188 198 187 209 213 195 190 197 201 185 200 210 208 217 231 291 221 224 213 152 241 243 258 253 265 260 261 263 265 261 265
250 250 246 246 246 245 232 225 223 220 204 206 205 208 227 176 169 184 188 174 189 204 198 192 225 216 233 213 224 223 220 229 217 130 250 287 275 262 259 259 250 252 255 258 263
244 240 239 248 252 242 233 232 228 244 237 202 197 199 195 185 195 195 180 186 198 200 204 206 138 213 194 199 208 220 224 210 238 260 209 304 282 253 242 253 258 253 251 253 252
241 235 235 235 238 237 236 232 228 231 237 196 201 209 196 168 223 184 184 171 191 210 199 225 219 202 204 215 202 220 223 237 224 247 247 342 279 236 204 263 247 254 238 249 251
241 243 234 224 225 226 234 230 225 215 237 172 174 186 185 185 142 191 184 182 190 179 189 204 202 188 204 214 198 224 167 201 213 230 271 232 262 245 179 252 256 255 271 256 241
235 241 225 225 227 233 213 204 190 199 223 169 155 167 163 198 196 150 174 188 185 184 212 210 222 206 215 190 194 138 129 109 164 214 243 235 219 251 224 211 232 131 104 88 95
231 229 228 223 219 225 225 223 210 223 141 164 175 173 180 180 185 172 179 183 180 178 199 206 203 174 176 167 184 175 164 155 189 201 235 169 199 249 258 233 242 191 145 44 82
233 225 220 227 222 225 220 219 218 209 179 152 166 171 188 160 195 182 177 189 205 203 181 187 199 189 182 191 179 193 185 185 201 204 219 172 217 244 249 236 207 154 114 101 101
228 225 225 218 216 217 209 225 208 162 187 157 159 171 176 179 166 171 189 193 193 197 191 197 204 196 174 182 175 192 213 222 89 46 211 186 253 270 248 238 209 204 136 118 84
221 224 229 221 212 206 211 233 220 236 160 173 179 183 177 175 171 181 182 200 192 198 210 183 192 187 175 163 207 196 186 180 213 205 229 202 238 236 189 206 142 143 134 89 38
208 220 228 216 210 208 212 215 192 231 174 229 196 169 194 179 192 187 185 177 189 188 193 179 172 154 158 206 187 173 194 211 218 228 231 236 227 202 199 185 169 130 107 15 2
198 200 207 193 201 213 201 161 171 208 184 274 275 207 193 185 187 189 194 195 193 179 187 180 157 175 197 126 285 201 205 198 201 199 231 266 249 99 114 103 109 94 1 352 351
191 193 177 184 215 237 118 166 193 159 179 194 298 170 236 191 185 188 198 207 192 182 179 169 182 151 173 238 236 217 215 214 227 274 214 212 227 135 140 186 306 338 350 355 348
191 175 178 200 233 221 185 157 168 200 223 199 239 331 294 200 184 181 198 185 183 187 177 165 169 202 194 219 167 197 210 212 220 233 232 234 250 243 252 272 291 314 339 334 342
163 196 182 173 200 188 177 181 190 174 209 196 217 200 261 276 169 169 151 135 173 183 171 180 202 200 40 134 184 199 192 199 210 224 226 242 245 253 263 284 298 336 328 324 331
172 163 152 146 195 174 183 192 180 192 158 190 214 218 254 224 220 169 160 169 167 185 175 186 165 135 93 32 122 155 197 199 206 220 235 246 259 260 279 126 220 342 340 329 332
157 163 150 164 159 168 188 190 206 193 211 213 207 192 206 235 214 208 174 181 172 172 179 157 142 168 180 299 83 269 207 196 201 206 216 224 238 269 170 155 100 2 6 344 336
Wind_Speed_850mb
36 32 27 27 29 28 22 21 20 29 30 32 34 36 38 35 39 37 40 24 18 15 15 16 20 22 25 20 18 14 13 24 27 23 11 12 14 12 10 10 11 16 9 10 13
36 38 36 29 33 29 31 22 24 24 22 26 27 31 35 38 38 45 45 35 30 26 21 17 18 24 17 18 14 20 18 27 11 19 9 9 13 8 9 16 14 14 20 14 14
47 43 41 40 35 36 18 31 31 31 30 23 21 20 23 26 26 16 27 36 46 42 30 26 21 21 20 17 22 16 21 22 8 15 10 8 10 6 10 14 18 21 22 22 20
45 49 52 50 45 40 37 25 34 34 32 24 23 22 20 18 11 9 12 17 27 46 41 30 24 21 20 20 23 12 28 14 4 8 7 8 7 9 15 8 7 12 13 20 23
52 52 51 49 52 49 47 39 31 29 33 34 29 23 23 16 29 14 9 6 10 30 48 35 34 27 22 19 16 24 17 16 24 9 9 9 13 10 22 22 11 11 8 7 15
65 62 64 56 53 52 49 49 41 30 27 23 37 28 32 29 26 25 19 11 11 25 36 38 23 26 19 11 30 10 34 28 12 20 20 10 16 3 23 25 29 27 24 22 20
71 69 65 65 59 57 55 50 50 40 34 23 31 33 41 45 21 16 30 26 21 24 26 41 24 26 17 9 20 6 11 13 23 26 12 13 30 35 58 27 17 19 23 20 27
71 56 57 60 59 54 52 53 50 46 40 26 31 35 35 26 52 53 26 29 28 24 20 31 39 19 12 11 8 14 14 24 14 26 18 29 40 21 38 44 56 54 47 47 46
60 59 58 57 63 54 52 52 49 51 44 37 36 33 29 24 54 40 31 33 32 28 21 16 29 24 17 19 13 18 26 29 20 25 10 34 23 17 12 28 40 38 33 39 58
56 65 61 58 52 51 47 46 48 49 49 44 42 20 36 27 25 43 49 43 26 31 23 19 19 21 25 29 32 26 23 25 26 12 18 28 31 17 11 5 15 19 25 31 39
60 58 57 59 54 52 49 38 33 32 75 35 28 26 0 38 20 36 36 33 29 38 33 22 23 42 47 45 33 16 33 22 12 4 8 29 34 31 44 41 39 41 42 38 41
63 60 54 54 56 52 53 55 50 16 20 75 40 70 24 39 23 26 33 34 41 40 46 20 46 38 17 29 34 24 21 26 6 2 6 15 30 27 33 43 44 44 44 42 45
64 59 54 55 50 57 61 62 54 43 11 40 62 54 50 47 28 49 49 31 42 40 48 46 5 40 30 29 38 40 37 24 15 1 5 19 40 37 27 45 45 48 51 51 51
64 59 54 50 45 52 59 56 52 48 16 20 38 36 62 28 16 39 57 39 18 45 37 36 32 23 35 43 33 38 32 26 19 10 16 2 17 15 7 13 14 25 25 32 36
56 58 59 53 39 34 48 51 54 34 19 27 24 25 51 59 28 36 57 29 31 29 30 27 29 29 39 44 37 21 22 28 27 24 18 30 14 13 3 16 29 29 23 15 15
58 51 52 54 54 55 32 38 48 14 18 21 19 31 32 62 31 32 48 27 26 25 33 30 2 33 39 16 37 29 21 16 12 13 16 34 28 22 20 19 16 10 19 21 14
46 48 56 56 62 57 57 35 17 22 20 16 18 25 52 32 44 30 43 35 30 23 31 37 24 7 19 28 28 36 38 11 10 13 22 10 24 39 12 13 13 12 23 11 14
50 50 54 64 58 50 48 13 25 35 18 5 20 33 35 33 39 36 45 38 48 40 27 30 21 35 28 37 21 44 43 15 19 17 15 20 23 13 11 38 25 12 9 16 19
43 50 58 61 60 55 36 25 5 7 27 24 27 38 20 21 20 27 43 51 52 50 25 35 30 33 40 17 28 36 34 16 3 3 5 15 17 19 22 12 25 17 22 22 17
40 45 57 61 62 63 20 41 9 10 8 35 30 29 29 37 25 40 44 45 44 48 27 16 17 21 18 15 23 33 30 16 14 14 16 18 18 16 13 24 17 22 23 12 15
36 15 28 58 49 37 21 21 18 13 4 15 32 21 34 37 37 47 50 23 53 54 36 25 9 9 27 31 38 16 30 19 16 16 15 14 13 8 14 18 23 17 10 16 25
34 9 20 42 17 12 19 18 13 26 10 12 6 12 36 46 36 40 39 32 72 50 48 31 9 15 37 8 11 38 41 44 19 19 17 14 15 8 12 18 15 9 13 20 23
29 31 25 54 17 18 7 14 20 14 14 7 5 8 3 38 24 33 41 40 49 47 46 29 15 14 11 6 5 19 25 39 31 7 27 17 19 17 17 8 3 8 12 15 18
24 15 17 39 34 26 14 15 17 18 16 12 11 16 13 19 6 26 32 20 45 46 42 45 7 27 29 16 23 22 31 34 31 19 31 32 43 34 25 23 24 16 11 16 19
36 9 24 16 19 28 27 27 34 16 15 28 13 17 23 6 19 14 16 12 25 48 30 25 20 9 3 6 20 25 26 37 39 42 28 38 40 36 34 26 15 7 14 22 20
21 13 12 6 38 35 34 22 34 35 17 19 24 23 17 29 12 21 24 23 20 29 31 19 10 7 4 6 8 10 28 38 36 34 31 31 35 40 14 2 2 5 10 15 22
32 25 36 22 18 24 22 29 42 38 24 32 35 26 16 31 38 19 23 33 28 41 33 23 14 17 16 1 9 9 29 33 29 29 32 29 36 15 7 6 4 5 9 12 16
Wind_Direction_850mb
277 276 278 278 233 247 263 244 243 256 245 252 265 263 282 281 268 266 267 251 239 236 225 209 203 196 185 188 188 174 222 231 226 204 218 179 204 187 208 221 198 203 212 186 189
266 273 278 272 271 259 250 253 232 252 256 264 274 281 288 293 287 271 261 245 228 224 221 202 198 186 182 183 188 202 221 228 233 214 241 200 220 191 208 201 212 206 215 205 193
260 260 260 268 268 269 282 250 242 249 245 243 261 287 293 292 300 266 243 238 229 221 212 203 196 188 208 183 188 197 227 226 222 224 243 240 229 213 231 222 223 217 207 214 215
263 254 257 254 253 262 270 277 238 247 250 239 248 259 276 286 253 208 226 240 233 214 205 194 181 188 208 209 204 210 228 219 225 217 224 233 291 235 224 240 225 201 199 217 221
253 253 253 253 254 251 256 255 263 255 260 252 233 246 243 244 248 233 219 229 210 204 201 192 184 192 205 212 192 229 226 215 230 212 234 269 244 275 257 230 207 188 189 211 227
260 255 257 253 252 250 250 249 242 256 267 299 221 241 229 238 259 228 202 204 200 189 200 196 203 200 210 216 213 229 227 236 230 230 231 236 250 211 255 246 240 243 249 252 252
257 258 256 250 253 247 247 249 245 236 241 272 210 233 240 234 252 232 215 211 206 197 209 208 203 191 190 189 218 201 238 220 222 226 229 187 244 233 246 253 250 242 248 257 255
255 253 252 252 251 246 244 243 240 237 233 224 223 236 246 239 243 240 228 210 206 200 198 210 212 211 198 144 123 219 239 240 172 191 210 201 253 213 251 235 248 255 257 260 257
258 254 252 253 253 249 244 243 238 234 233 223 218 222 242 230 228 228 218 225 207 201 190 187 189 212 180 193 205 203 239 230 240 194 184 204 254 241 267 234 246 250 255 257 259
257 257 252 250 246 245 245 242 235 234 218 211 215 202 230 219 209 216 228 222 203 195 190 179 186 208 211 200 219 211 216 219 218 186 222 226 241 263 234 251 253 253 252 255 256
254 253 255 252 250 251 242 235 223 219 207 189 193 193 188 198 187 209 213 195 190 197 201 185 200 210 208 217 231 291 221 224 213 152 241 243 258 253 265 260 261 263 265 261 265
250 250 246 246 246 245 232 225 223 220 204 206 205 208 227 176 169 184 188 174 189 204 198 192 225 216 233 213 224 223 220 229 217 130 250 287 275 262 259 259 250 252 255 258 263
244 240 239 248 252 242 233 232 228 244 237 202 197 199 195 185 195 195 180 186 198 200 204 206 138 213 194 199 208 220 224 210 238 260 209 304 282 253 242 253 258 253 251 253 252
241 235 235 235 238 237 236 232 228 231 237 196 201 209 196 168 223 184 184 171 191 210 199 225 219 202 204 215 202 220 223 237 224 247 247 342 279 236 204 263 247 254 238 249 251
241 243 234 224 225 226 234 230 225 215 237 172 174 186 185 185 142 191 184 182 190 179 189 204 202 188 204 214 198 224 167 201 213 230 271 232 262 245 179 252 256 255 271 256 241
235 241 225 225 227 233 213 204 190 199 223 169 155 167 163 198 196 150 174 188 185 184 212 210 222 206 215 190 194 138 129 109 164 214 243 235 219 251 224 211 232 131 104 88 95
231 229 228 223 219 225 225 223 210 223 141 164 175 173 180 180 185 172 179 183 180 178 199 206 203 174 176 167 184 175 164 155 189 201 235 169 199 249 258 233 242 191 145 44 82
233 225 220 227 222 225 220 219 218 209 179 152 166 171 188 160 195 182 177 189 205 203 181 187 199 189 182 191 179 193 185 185 201 204 219 172 217 244 249 236 207 154 114 101 101
228 225 225 218 216 217 209 225 208 162 187 157 159 171 176 179 166 171 189 193 193 197 191 197 204 196 174 182 175 192 213 222 89 46 211 186 253 270 248 238 209 204 136 118 84
221 224 229 221 212 206 211 233 220 236 160 173 179 183 177 175 171 181 182 200 192 198 210 183 192 187 175 163 207 196 186 180 213 205 229 202 238 236 189 206 142 143 134 89 38
208 220 228 216 210 208 212 215 192 231 174 229 196 169 194 179 192 187 185 177 189 188 193 179 172 154 158 206 187 173 194 211 218 228 231 236 227 202 199 185 169 130 107 15 2
198 200 207 193 201 213 201 161 171 208 184 274 275 207 193 185 187 189 194 195 193 179 187 180 157 175 197 126 285 201 205 198 201 199 231 266 249 99 114 103 109 94 1 352 351
191 193 177 184 215 237 118 166 193 159 179 194 298 170 236 191 185 188 198 207 192 182 179 169 182 151 173 238 236 217 215 214 227 274 214 212 227 135 140 186 306 338 350 355 348
191 175 178 200 233 221 185 157 168 200 223 199 239 331 294 200 184 181 198 185 183 187 177 165 169 202 194 219 167 197 210 212 220 233 232 234 250 243 252 272 291 314 339 334 342
163 196 182 173 200 188 177 181 190 174 209 196 217 200 261 276 169 169 151 135 173 183 171 180 202 200 40 134 184 199 192 199 210 224 226 242 245 253 263 284 298 336 328 324 331
172 163 152 146 195 174 183 192 180 192 158 190 214 218 254 224 220 169 160 169 167 185 175 186 165 135 93 32 122 155 197 199 206 220 235 246 259 260 279 126 220 342 340 329 332
157 163 150 164 159 168 188 190 206 193 211 213 207 192 206 235 214 208 174 181 172 172 179 157 142 168 180 299 83 269 207 196 201 206 216 224 238 269 170 155 100 2 6 344 336